Terminal Aerodrome Forecast
Issued by NWS

Home | Current Version | Previous Version | Text Only | Print | Product List | Glossary On
Versions: 1 2 3 4 5 6 7 8 9 10 11 12 13 14 15
000
FTUS42 TJSJ 191100
TAFISX
TAF
TISX 191131Z 1912/2012 05010KT P6SM VCSH FEW025 SCT040 BKN070
     FM191500 08013KT P6SM SCT030
     FM192300 06006KT P6SM FEW025
      AMD NOT SKED=

USA.gov is the U.S. government's official web portal to all federal, state and local government web resources and services.